Year,Month,Day,Hour,Minute,Value (Times are PST for barometer in hPa)
2010,04,02,00,00,1007.27
2010,04,02,00,01,1007.23
2010,04,02,00,02,1007.19
2010,04,02,00,03,1007.18
2010,04,02,00,04,1007.16
2010,04,02,00,05,1007.06
2010,04,02,00,06,1006.99
2010,04,02,00,07,1006.95
2010,04,02,00,08,1006.97
2010,04,02,00,09,1006.98
2010,04,02,00,10,1006.95
2010,04,02,00,11,1006.94
2010,04,02,00,12,1006.94
2010,04,02,00,13,1006.90
2010,04,02,00,14,1006.88
2010,04,02,00,15,1006.85
2010,04,02,00,16,1006.82
2010,04,02,00,17,1006.81
2010,04,02,00,18,1006.76
2010,04,02,00,19,1006.74
2010,04,02,00,20,1006.74
2010,04,02,00,21,1006.74
2010,04,02,00,22,1006.74
2010,04,02,00,23,1006.74
2010,04,02,00,24,1006.66
2010,04,02,00,25,1006.61
2010,04,02,00,26,1006.58
2010,04,02,00,27,1006.55
2010,04,02,00,28,1006.54
2010,04,02,00,29,1006.51
2010,04,02,00,30,1006.50
2010,04,02,00,31,1006.50
2010,04,02,00,32,1006.50
2010,04,02,00,33,1006.50
2010,04,02,00,34,1006.48
2010,04,02,00,35,1006.45
2010,04,02,00,36,1006.44
2010,04,02,00,37,1006.44
2010,04,02,00,38,1006.39
2010,04,02,00,39,1006.34
2010,04,02,00,40,1006.31
2010,04,02,00,41,1006.30
2010,04,02,00,42,1006.30
2010,04,02,00,43,1006.25
2010,04,02,00,44,1006.18
2010,04,02,00,45,1006.11
2010,04,02,00,46,1006.07
2010,04,02,00,47,1006.09
2010,04,02,00,48,1006.02
2010,04,02,00,49,1005.99
2010,04,02,00,50,1005.97
2010,04,02,00,51,1005.96
2010,04,02,00,52,1005.91
2010,04,02,00,53,1005.85
2010,04,02,00,54,1005.78
2010,04,02,00,55,1005.73
2010,04,02,00,56,1005.75
2010,04,02,00,57,1005.73
2010,04,02,00,58,1005.70
2010,04,02,00,59,1005.69
2010,04,02,01,00,1005.69
2010,04,02,01,01,1005.69
2010,04,02,01,02,1005.67
2010,04,02,01,03,1005.63
2010,04,02,01,04,1005.60
2010,04,02,01,05,1005.56
2010,04,02,01,06,1005.53
2010,04,02,01,07,1005.47
2010,04,02,01,08,1005.45
2010,04,02,01,09,1005.43
2010,04,02,01,10,1005.44
2010,04,02,01,11,1005.45
2010,04,02,01,12,1005.38
2010,04,02,01,13,1005.38
2010,04,02,01,14,1005.36
2010,04,02,01,15,1005.35
2010,04,02,01,16,1005.33
2010,04,02,01,17,1005.27
2010,04,02,01,18,1005.27
2010,04,02,01,19,1005.26
2010,04,02,01,20,1005.25
2010,04,02,01,21,1005.23
2010,04,02,01,22,1005.22
2010,04,02,01,23,1005.24
2010,04,02,01,24,1005.20
2010,04,02,01,25,1005.16
2010,04,02,01,26,1005.08
2010,04,02,01,27,1005.00
2010,04,02,01,28,1004.96
2010,04,02,01,29,1004.92
2010,04,02,01,30,1004.91
2010,04,02,01,31,1004.89
2010,04,02,01,32,1004.83
2010,04,02,01,33,1004.83
2010,04,02,01,34,1004.84
2010,04,02,01,35,1004.79
2010,04,02,01,36,1004.82
2010,04,02,01,37,1004.79
2010,04,02,01,38,1004.70
2010,04,02,01,39,1004.65
2010,04,02,01,40,1004.64
2010,04,02,01,41,1004.59
2010,04,02,01,42,1004.52
2010,04,02,01,43,1004.53
2010,04,02,01,44,1004.54
2010,04,02,01,45,1004.54
2010,04,02,01,46,1004.59
2010,04,02,01,47,1004.58
2010,04,02,01,48,1004.62
2010,04,02,01,49,1004.62
2010,04,02,01,50,1004.63
2010,04,02,01,51,1004.59
2010,04,02,01,52,1004.60
2010,04,02,01,53,1004.61
2010,04,02,01,54,1004.61
2010,04,02,01,55,1004.63
2010,04,02,01,56,1004.66
2010,04,02,01,57,1004.70
2010,04,02,01,58,1004.71
2010,04,02,01,59,1004.71
2010,04,02,02,00,1004.68
2010,04,02,02,01,1004.67
2010,04,02,02,02,1004.59
2010,04,02,02,03,1004.55
2010,04,02,02,04,1004.54
2010,04,02,02,05,1004.51
2010,04,02,02,06,1004.55
2010,04,02,02,07,1004.49
2010,04,02,02,08,1004.45
2010,04,02,02,09,1004.44
2010,04,02,02,10,1004.46
2010,04,02,02,11,1004.40
2010,04,02,02,12,1004.39
2010,04,02,02,13,1004.38
2010,04,02,02,14,1004.32
2010,04,02,02,15,1004.25
2010,04,02,02,16,1004.23
2010,04,02,02,17,1004.18
2010,04,02,02,18,1004.17
2010,04,02,02,19,1004.17
2010,04,02,02,20,1004.17
2010,04,02,02,21,1004.09
2010,04,02,02,22,1004.09
2010,04,02,02,23,1004.07
2010,04,02,02,24,1004.06
2010,04,02,02,25,1004.02
2010,04,02,02,26,1003.97
2010,04,02,02,27,1004.01
2010,04,02,02,28,1004.01
2010,04,02,02,29,1003.97
2010,04,02,02,30,1003.94
2010,04,02,02,31,1003.88
2010,04,02,02,32,1003.84
2010,04,02,02,33,1003.80
2010,04,02,02,34,1003.74
2010,04,02,02,35,1003.75
2010,04,02,02,36,1003.74
2010,04,02,02,37,1003.70
2010,04,02,02,38,1003.72
2010,04,02,02,39,1003.70
2010,04,02,02,40,1003.69
2010,04,02,02,41,1003.69
2010,04,02,02,42,1003.64
2010,04,02,02,43,1003.60
2010,04,02,02,44,1003.57
2010,04,02,02,45,1003.51
2010,04,02,02,46,1003.47
2010,04,02,02,47,1003.46
2010,04,02,02,48,1003.43
2010,04,02,02,49,1003.42
2010,04,02,02,50,1003.34
2010,04,02,02,51,1003.30
2010,04,02,02,52,1003.26
2010,04,02,02,53,1003.25
2010,04,02,02,54,1003.25
2010,04,02,02,55,1003.25
2010,04,02,02,56,1003.23
2010,04,02,02,57,1003.22
2010,04,02,02,58,1003.22
2010,04,02,02,59,1003.19
2010,04,02,03,00,1003.16
2010,04,02,03,01,1003.17
2010,04,02,03,02,1003.16
2010,04,02,03,06,1003.09
2010,04,02,03,07,1003.12
2010,04,02,03,08,1003.06
2010,04,02,03,09,1003.02
2010,04,02,03,10,1003.01
2010,04,02,03,11,1002.98
2010,04,02,03,12,1002.98
2010,04,02,03,13,1002.92
2010,04,02,03,14,1002.94
2010,04,02,03,15,1002.92
2010,04,02,03,16,1002.91
2010,04,02,03,17,1002.86
2010,04,02,03,18,1002.85
2010,04,02,03,19,1002.85
2010,04,02,03,20,1002.82
2010,04,02,03,21,1002.72
2010,04,02,03,22,1002.71
2010,04,02,03,23,1002.62
2010,04,02,03,24,1002.58
2010,04,02,03,25,1002.52
2010,04,02,03,26,1002.54
2010,04,02,03,27,1002.48
2010,04,02,03,28,1002.44
2010,04,02,03,29,1002.44
2010,04,02,03,30,1002.44
2010,04,02,03,31,1002.44
2010,04,02,03,32,1002.38
2010,04,02,03,33,1002.40
2010,04,02,03,34,1002.41
2010,04,02,03,35,1002.38
2010,04,02,03,36,1002.40
2010,04,02,03,37,1002.37
2010,04,02,03,38,1002.40
2010,04,02,03,39,1002.38
2010,04,02,03,40,1002.41
2010,04,02,03,41,1002.41
2010,04,02,03,42,1002.35
2010,04,02,03,43,1002.34
2010,04,02,03,44,1002.28
2010,04,02,03,45,1002.33
2010,04,02,03,46,1002.37
2010,04,02,03,47,1002.34
2010,04,02,03,48,1002.31
2010,04,02,03,49,1002.30
2010,04,02,03,50,1002.25
2010,04,02,03,51,1002.27
2010,04,02,03,52,1002.24
2010,04,02,03,53,1002.21
2010,04,02,03,54,1002.11
2010,04,02,03,55,1002.10
2010,04,02,03,56,1002.07
2010,04,02,03,57,1002.07
2010,04,02,03,58,1002.10
2010,04,02,03,59,1002.10
2010,04,02,04,00,1002.13
2010,04,02,04,01,1002.13
2010,04,02,04,02,1002.13
2010,04,02,04,03,1002.08
2010,04,02,04,04,1001.98
2010,04,02,04,05,1001.97
2010,04,02,04,06,1001.97
2010,04,02,04,07,1001.91
2010,04,02,04,08,1001.84
2010,04,02,04,09,1001.83
2010,04,02,04,10,1001.77
2010,04,02,04,11,1001.73
2010,04,02,04,12,1001.69
2010,04,02,04,13,1001.58
2010,04,02,04,14,1001.56
2010,04,02,04,15,1001.47
2010,04,02,04,16,1001.51
2010,04,02,04,17,1001.49
2010,04,02,04,18,1001.35
2010,04,02,04,19,1001.26
2010,04,02,04,20,1001.25
2010,04,02,04,21,1001.28
2010,04,02,04,22,1001.26
2010,04,02,04,23,1001.22
2010,04,02,04,24,1001.19
2010,04,02,04,25,1001.13
2010,04,02,04,26,1001.09
2010,04,02,04,27,1001.05
2010,04,02,04,28,1001.08
2010,04,02,04,29,1001.05
2010,04,02,04,30,1000.97
2010,04,02,04,31,1000.98
2010,04,02,04,32,1000.93
2010,04,02,04,33,1000.89
2010,04,02,04,34,1000.85
2010,04,02,04,35,1000.85
2010,04,02,04,36,1000.79
2010,04,02,04,37,1000.81
2010,04,02,04,38,1000.76
2010,04,02,04,39,1000.72
2010,04,02,04,40,1000.65
2010,04,02,04,41,1000.59
2010,04,02,04,42,1000.55
2010,04,02,04,43,1000.54
2010,04,02,04,44,1000.49
2010,04,02,04,45,1000.51
2010,04,02,04,46,1000.45
2010,04,02,04,47,1000.47
2010,04,02,04,48,1000.48
2010,04,02,04,49,1000.45
2010,04,02,04,50,1000.41
2010,04,02,04,51,1000.35
2010,04,02,04,52,1000.28
2010,04,02,04,53,1000.27
2010,04,02,04,54,1000.18
2010,04,02,04,55,1000.20
2010,04,02,04,56,1000.17
2010,04,02,04,57,1000.11
2010,04,02,04,58,1000.10
2010,04,02,04,59,1000.04
2010,04,02,05,00,999.98
2010,04,02,05,01,999.79
2010,04,02,05,02,999.71
2010,04,02,05,03,999.64
2010,04,02,05,04,999.63
2010,04,02,05,05,999.63
2010,04,02,05,06,999.60
2010,04,02,05,07,999.54
2010,04,02,05,08,999.53
2010,04,02,05,09,999.50
2010,04,02,05,10,999.46
2010,04,02,05,11,999.43
2010,04,02,05,12,999.46
2010,04,02,05,13,999.43
2010,04,02,05,14,999.43
2010,04,02,05,15,999.37
2010,04,02,05,16,999.32
2010,04,02,05,17,999.27
2010,04,02,05,18,999.23
2010,04,02,05,19,999.22
2010,04,02,05,20,999.20
2010,04,02,05,21,999.02
2010,04,02,05,22,998.93
2010,04,02,05,23,998.84
2010,04,02,05,24,998.79
2010,04,02,05,25,998.78
2010,04,02,05,26,998.76
2010,04,02,05,27,998.72
2010,04,02,05,28,998.68
2010,04,02,05,29,998.65
2010,04,02,05,30,998.56
2010,04,02,05,31,998.49
2010,04,02,05,32,998.45
2010,04,02,05,33,998.44
2010,04,02,05,34,998.44
2010,04,02,05,35,998.39
2010,04,02,05,36,998.34
2010,04,02,05,37,998.34
2010,04,02,05,38,998.40
2010,04,02,05,39,998.39
2010,04,02,05,40,998.35
2010,04,02,05,41,998.23
2010,04,02,05,42,998.21
2010,04,02,05,43,998.18
2010,04,02,05,44,998.15
2010,04,02,05,45,998.08
2010,04,02,05,46,998.10
2010,04,02,05,47,998.08
2010,04,02,05,48,998.01
2010,04,02,05,49,998.00
2010,04,02,05,50,997.97
2010,04,02,05,51,997.85
2010,04,02,05,52,997.78
2010,04,02,05,53,997.74
2010,04,02,05,54,997.73
2010,04,02,05,55,997.71
2010,04,02,05,56,997.64
2010,04,02,05,57,997.60
2010,04,02,05,58,997.48
2010,04,02,05,59,997.49
2010,04,02,06,00,997.53
2010,04,02,06,01,997.41
2010,04,02,06,02,997.36
2010,04,02,06,03,997.34
2010,04,02,06,04,997.24
2010,04,02,06,05,997.22
2010,04,02,06,06,997.17
2010,04,02,06,07,997.07
2010,04,02,06,08,996.97
2010,04,02,06,09,996.90
2010,04,02,06,10,996.83
2010,04,02,06,11,996.70
2010,04,02,06,12,996.65
2010,04,02,06,13,996.53
2010,04,02,06,14,996.46
2010,04,02,06,15,996.42
2010,04,02,06,16,996.30
2010,04,02,06,17,996.30
2010,04,02,06,18,996.19
2010,04,02,06,19,996.17
2010,04,02,06,20,996.14
2010,04,02,06,21,996.11
2010,04,02,06,22,996.11
2010,04,02,06,23,996.11
2010,04,02,06,24,996.03
2010,04,02,06,25,995.98
2010,04,02,06,26,995.97
2010,04,02,06,27,996.03
2010,04,02,06,28,995.98
2010,04,02,06,29,995.89
2010,04,02,06,30,995.87
2010,04,02,06,31,995.81
2010,04,02,06,32,995.80
2010,04,02,06,33,995.74
2010,04,02,06,34,995.76
2010,04,02,06,35,995.79
2010,04,02,06,36,995.77
2010,04,02,06,37,995.79
2010,04,02,06,38,995.80
2010,04,02,06,39,995.80
2010,04,02,06,40,995.78
2010,04,02,06,41,995.74
2010,04,02,06,42,995.65
2010,04,02,06,43,995.75
2010,04,02,06,44,995.57
2010,04,02,06,45,995.51
2010,04,02,06,46,995.50
2010,04,02,06,47,995.53
2010,04,02,06,48,995.53
2010,04,02,06,49,995.39
2010,04,02,06,50,995.39
2010,04,02,06,51,995.34
2010,04,02,06,52,995.27
2010,04,02,06,53,995.23
2010,04,02,06,54,995.23
2010,04,02,06,55,995.20
2010,04,02,06,56,995.19
2010,04,02,06,57,995.10
2010,04,02,06,58,994.95
2010,04,02,06,59,994.98
2010,04,02,07,00,994.87
2010,04,02,07,01,994.88
2010,04,02,07,02,994.86
2010,04,02,07,03,994.80
2010,04,02,07,04,994.79
2010,04,02,07,05,994.65
2010,04,02,07,06,994.73
2010,04,02,07,07,994.75
2010,04,02,07,08,994.58
2010,04,02,07,09,994.58
2010,04,02,07,10,994.53
2010,04,02,07,11,994.43
2010,04,02,07,12,994.36
2010,04,02,07,13,994.23
2010,04,02,07,14,994.07
2010,04,02,07,15,994.04
2010,04,02,07,16,994.07
2010,04,02,07,17,994.02
2010,04,02,07,18,993.90
2010,04,02,07,19,993.90
2010,04,02,07,20,993.85
2010,04,02,07,21,993.78
2010,04,02,07,22,993.74
2010,04,02,07,23,993.74
2010,04,02,07,24,993.79
2010,04,02,07,25,993.72
2010,04,02,07,26,993.67
2010,04,02,07,27,993.64
2010,04,02,07,28,993.49
2010,04,02,07,29,993.35
2010,04,02,07,30,993.39
2010,04,02,07,31,993.26
2010,04,02,07,32,993.23
2010,04,02,07,33,993.11
2010,04,02,07,34,993.12
2010,04,02,07,35,993.18
2010,04,02,07,36,993.11
2010,04,02,07,37,993.12
2010,04,02,07,38,992.99
2010,04,02,07,39,992.98
2010,04,02,07,40,992.93
2010,04,02,07,41,992.69
2010,04,02,07,42,992.62
2010,04,02,07,43,992.59
2010,04,02,07,44,992.58
2010,04,02,07,45,992.55
2010,04,02,07,46,992.49
2010,04,02,07,47,992.40
2010,04,02,07,48,992.35
2010,04,02,07,49,992.29
2010,04,02,07,50,992.26
2010,04,02,07,51,992.22
2010,04,02,07,52,992.24
2010,04,02,07,53,992.11
2010,04,02,07,54,992.05
2010,04,02,07,55,991.94
2010,04,02,07,56,991.83
2010,04,02,07,57,991.83
2010,04,02,07,58,991.78
2010,04,02,07,59,991.83
2010,04,02,08,00,991.76
2010,04,02,08,01,991.68
2010,04,02,08,02,991.73
2010,04,02,08,03,991.66
2010,04,02,08,04,991.67
2010,04,02,08,05,991.64
2010,04,02,08,06,991.69
2010,04,02,08,07,991.44
2010,04,02,08,08,991.46
2010,04,02,08,09,991.41
2010,04,02,08,10,991.40
2010,04,02,08,11,991.46
2010,04,02,08,12,991.39
2010,04,02,08,13,991.39
2010,04,02,08,14,991.28
2010,04,02,08,15,991.32
2010,04,02,08,16,991.30
2010,04,02,08,17,991.19
2010,04,02,08,18,991.24
2010,04,02,08,19,991.09
2010,04,02,08,20,991.12
2010,04,02,08,21,991.13
2010,04,02,08,22,990.97
2010,04,02,08,23,991.02
2010,04,02,08,24,990.95
2010,04,02,08,25,990.90
2010,04,02,08,26,991.01
2010,04,02,08,27,990.97
2010,04,02,08,28,990.90
2010,04,02,08,29,990.74
2010,04,02,08,30,990.75
2010,04,02,08,31,990.73
2010,04,02,08,32,990.75
2010,04,02,08,33,990.64
2010,04,02,08,34,990.54
2010,04,02,08,35,990.38
2010,04,02,08,36,990.37
2010,04,02,08,37,990.44
2010,04,02,08,38,990.36
2010,04,02,08,39,990.43
2010,04,02,08,40,990.42
2010,04,02,08,41,990.42
2010,04,02,08,42,990.36
2010,04,02,08,43,990.33
2010,04,02,08,44,990.32
2010,04,02,08,45,990.26
2010,04,02,08,46,990.25
2010,04,02,08,47,990.25
2010,04,02,08,48,990.16
2010,04,02,08,49,990.15
2010,04,02,08,50,990.12
2010,04,02,08,51,990.11
2010,04,02,08,52,990.05
2010,04,02,08,53,990.02
2010,04,02,08,54,990.03
2010,04,02,08,55,990.04
2010,04,02,08,56,989.99
2010,04,02,08,57,989.90
2010,04,02,08,58,989.96
2010,04,02,08,59,989.92
2010,04,02,09,00,989.75
2010,04,02,09,01,989.62
2010,04,02,09,02,989.72
2010,04,02,09,03,989.68
2010,04,02,09,04,989.61
2010,04,02,09,05,989.63
2010,04,02,09,06,989.58
2010,04,02,09,07,989.55
2010,04,02,09,08,989.56
2010,04,02,09,09,989.59
2010,04,02,09,10,989.60
2010,04,02,09,11,989.60
2010,04,02,09,12,989.69
2010,04,02,09,13,989.60
2010,04,02,09,14,989.63
2010,04,02,09,15,989.52
2010,04,02,09,16,989.50
2010,04,02,09,17,989.50
2010,04,02,09,18,989.41
2010,04,02,09,19,989.32
2010,04,02,09,20,989.36
2010,04,02,09,21,989.25
2010,04,02,09,22,989.26
2010,04,02,09,23,989.24
2010,04,02,09,24,989.15
2010,04,02,09,25,989.21
2010,04,02,09,26,989.23
2010,04,02,09,27,989.15
2010,04,02,09,28,989.11
2010,04,02,09,29,989.12
2010,04,02,09,30,989.11
2010,04,02,09,31,989.07
2010,04,02,09,32,989.09
2010,04,02,09,33,989.02
2010,04,02,09,34,988.91
2010,04,02,09,35,988.92
2010,04,02,09,36,988.79
2010,04,02,09,37,988.82
2010,04,02,09,38,988.80
2010,04,02,09,39,988.82
2010,04,02,09,40,988.80
2010,04,02,09,41,988.71
2010,04,02,09,42,988.71
2010,04,02,09,43,988.70
2010,04,02,09,44,988.69
2010,04,02,09,45,988.69
2010,04,02,09,46,988.66
2010,04,02,09,47,988.60
2010,04,02,09,48,988.59
2010,04,02,09,49,988.61
2010,04,02,09,50,988.60
2010,04,02,09,51,988.56
2010,04,02,09,52,988.58
2010,04,02,09,53,988.51
2010,04,02,09,54,988.46
2010,04,02,09,55,988.40
2010,04,02,09,56,988.25
2010,04,02,09,57,988.22
2010,04,02,09,58,988.16
2010,04,02,09,59,988.09
2010,04,02,10,00,988.11
2010,04,02,10,01,988.03
2010,04,02,10,02,988.04
2010,04,02,10,03,987.97
2010,04,02,10,04,987.89
2010,04,02,10,05,987.85
2010,04,02,10,06,987.84
2010,04,02,10,07,987.87
2010,04,02,10,08,987.94
2010,04,02,10,09,987.86
2010,04,02,10,10,987.84
2010,04,02,10,11,987.82
2010,04,02,10,12,987.83
2010,04,02,10,13,987.82
2010,04,02,10,14,987.79
2010,04,02,10,15,987.75
2010,04,02,10,16,987.80
2010,04,02,10,17,987.79
2010,04,02,10,18,987.72
2010,04,02,10,19,987.77
2010,04,02,10,20,987.58
2010,04,02,10,21,987.62
2010,04,02,10,22,987.54
2010,04,02,10,23,987.56
2010,04,02,10,24,987.52
2010,04,02,10,25,987.56
2010,04,02,10,26,987.49
2010,04,02,10,27,987.55
2010,04,02,10,28,987.52
2010,04,02,10,29,987.48
2010,04,02,10,30,987.24
2010,04,02,10,31,987.53
2010,04,02,10,32,987.39
2010,04,02,10,33,987.60
2010,04,02,10,34,987.65
2010,04,02,10,35,987.66
2010,04,02,10,36,987.67
2010,04,02,10,37,987.53
2010,04,02,10,38,987.56
2010,04,02,10,39,987.60
2010,04,02,10,40,987.61
2010,04,02,10,41,987.58
2010,04,02,10,42,987.57
2010,04,02,10,43,987.47
2010,04,02,10,44,987.50
2010,04,02,10,45,987.53
2010,04,02,10,46,987.54
2010,04,02,10,47,987.46
2010,04,02,10,48,987.41
2010,04,02,10,49,987.43
2010,04,02,10,50,987.52
2010,04,02,10,51,987.46
2010,04,02,10,52,987.44
2010,04,02,10,53,987.50
2010,04,02,10,54,987.45
2010,04,02,10,55,987.50
2010,04,02,10,56,987.53
2010,04,02,10,57,987.46
2010,04,02,10,58,987.52
2010,04,02,10,59,987.46
2010,04,02,11,00,987.47
2010,04,02,11,01,987.41
2010,04,02,11,02,987.40
2010,04,02,11,03,987.38
2010,04,02,11,04,987.39
2010,04,02,11,05,987.43
2010,04,02,11,06,987.38
2010,04,02,11,07,987.23
2010,04,02,11,08,987.28
2010,04,02,11,09,987.20
2010,04,02,11,10,987.14
2010,04,02,11,11,987.16
2010,04,02,11,12,987.05
2010,04,02,11,13,986.95
2010,04,02,11,14,986.96
2010,04,02,11,15,986.94
2010,04,02,11,16,986.93
2010,04,02,11,17,986.93
2010,04,02,11,18,986.91
2010,04,02,11,19,986.81
2010,04,02,11,20,986.79
2010,04,02,11,21,986.88
2010,04,02,11,22,986.81
2010,04,02,11,23,986.79
2010,04,02,11,24,986.85
2010,04,02,11,25,986.84
2010,04,02,11,26,986.77
2010,04,02,11,27,986.74
2010,04,02,11,28,986.73
2010,04,02,11,29,986.76
2010,04,02,11,30,986.74
2010,04,02,11,31,986.75
2010,04,02,11,32,986.82
2010,04,02,11,33,986.77
2010,04,02,11,34,986.76
2010,04,02,11,35,986.68
2010,04,02,11,36,986.66
2010,04,02,11,37,986.66
2010,04,02,11,38,986.60
2010,04,02,11,39,986.61
2010,04,02,11,40,986.54
2010,04,02,11,41,986.50
2010,04,02,11,42,986.57
2010,04,02,11,43,986.59
2010,04,02,11,44,986.49
2010,04,02,11,45,986.48
2010,04,02,11,46,986.49
2010,04,02,11,47,986.47
2010,04,02,11,48,986.43
2010,04,02,11,49,986.40
2010,04,02,11,50,986.39
2010,04,02,11,51,986.36
2010,04,02,11,52,986.41
2010,04,02,11,53,986.40
2010,04,02,11,54,986.39
2010,04,02,11,55,986.36
2010,04,02,11,56,986.38
2010,04,02,11,57,986.41
2010,04,02,11,58,986.42
2010,04,02,11,59,986.32
2010,04,02,12,00,986.26
2010,04,02,12,01,986.28
2010,04,02,12,02,986.31
2010,04,02,12,03,986.30
2010,04,02,12,04,986.18
2010,04,02,12,05,986.13
2010,04,02,12,06,986.04
2010,04,02,12,07,986.20
2010,04,02,12,08,985.98
2010,04,02,12,09,985.91
2010,04,02,12,10,985.84
2010,04,02,12,11,985.84
2010,04,02,12,12,985.85
2010,04,02,12,13,985.79
2010,04,02,12,14,985.80
2010,04,02,12,15,985.81
2010,04,02,12,16,985.79
2010,04,02,12,17,985.80
2010,04,02,12,18,985.84
2010,04,02,12,19,985.85
2010,04,02,12,20,985.82
2010,04,02,12,21,985.89
2010,04,02,12,22,985.86
2010,04,02,12,23,985.82
2010,04,02,12,24,985.81
2010,04,02,12,25,985.81
2010,04,02,12,26,985.79
2010,04,02,12,27,985.78
2010,04,02,12,28,985.78
2010,04,02,12,29,985.70
2010,04,02,12,30,985.65
2010,04,02,12,31,985.81
2010,04,02,12,32,985.79
2010,04,02,12,33,985.80
2010,04,02,12,34,985.81
2010,04,02,12,35,985.76
2010,04,02,12,36,985.80
2010,04,02,12,37,985.81
2010,04,02,12,38,985.79
2010,04,02,12,39,985.67
2010,04,02,12,40,985.72
2010,04,02,12,41,985.74
2010,04,02,12,42,985.70
2010,04,02,12,43,985.68
2010,04,02,12,44,985.54
2010,04,02,12,45,985.53
2010,04,02,12,46,985.54
2010,04,02,12,47,985.56
2010,04,02,12,48,985.49
2010,04,02,12,49,985.47
2010,04,02,12,50,985.50
2010,04,02,12,51,985.56
2010,04,02,12,52,985.60
2010,04,02,12,53,985.58
2010,04,02,12,54,985.63
2010,04,02,12,55,985.64
2010,04,02,12,56,985.56
2010,04,02,12,57,985.65
2010,04,02,12,58,985.54
2010,04,02,12,59,985.61
2010,04,02,13,00,985.50
2010,04,02,13,01,985.47
2010,04,02,13,02,985.39
2010,04,02,13,03,985.35
2010,04,02,13,04,985.34
2010,04,02,13,05,985.28
2010,04,02,13,06,985.27
2010,04,02,13,07,985.29
2010,04,02,13,08,985.25
2010,04,02,13,09,985.24
2010,04,02,13,10,985.26
2010,04,02,13,11,985.25
2010,04,02,13,12,985.26
2010,04,02,13,13,985.25
2010,04,02,13,14,985.15
2010,04,02,13,15,985.22
2010,04,02,13,16,985.18
2010,04,02,13,17,985.11
2010,04,02,13,18,984.94
2010,04,02,13,19,985.06
2010,04,02,13,20,985.10
2010,04,02,13,21,985.18
2010,04,02,13,22,985.18
2010,04,02,13,23,985.11
2010,04,02,13,24,985.08
2010,04,02,13,25,985.07
2010,04,02,13,26,985.09
2010,04,02,13,27,985.08
2010,04,02,13,28,985.01
2010,04,02,13,29,985.00
2010,04,02,13,30,985.00
2010,04,02,13,31,984.94
2010,04,02,13,32,984.91
2010,04,02,13,33,984.90
2010,04,02,13,34,984.87
2010,04,02,13,35,984.84
2010,04,02,13,36,984.77
2010,04,02,13,37,984.66
2010,04,02,13,38,984.83
2010,04,02,13,39,984.82
2010,04,02,13,40,984.80
2010,04,02,13,41,984.82
2010,04,02,13,42,984.72
2010,04,02,13,43,984.75
2010,04,02,13,44,984.66
2010,04,02,13,45,984.73
2010,04,02,13,46,984.70
2010,04,02,13,47,984.64
2010,04,02,13,48,984.63
2010,04,02,13,49,984.65
2010,04,02,13,50,984.60
2010,04,02,13,51,984.54
2010,04,02,13,52,984.53
2010,04,02,13,53,984.58
2010,04,02,13,54,984.62
2010,04,02,13,55,984.60
2010,04,02,13,56,984.57
2010,04,02,13,57,984.56
2010,04,02,13,58,984.58
2010,04,02,13,59,984.54
2010,04,02,14,00,984.50
2010,04,02,14,01,984.64
2010,04,02,14,02,984.56
2010,04,02,14,03,984.58
2010,04,02,14,04,984.62
2010,04,02,14,05,984.57
2010,04,02,14,06,984.48
2010,04,02,14,07,984.54
2010,04,02,14,08,984.58
2010,04,02,14,09,984.49
2010,04,02,14,10,984.46
2010,04,02,14,11,984.56
2010,04,02,14,12,984.65
2010,04,02,14,13,984.64
2010,04,02,14,14,984.71
2010,04,02,14,15,984.46
2010,04,02,14,16,984.41
2010,04,02,14,17,984.34
2010,04,02,14,18,984.40
2010,04,02,14,19,984.48
2010,04,02,14,20,984.41
2010,04,02,14,21,984.53
2010,04,02,14,22,984.27
2010,04,02,14,23,984.41
2010,04,02,14,24,984.40
2010,04,02,14,25,984.37
2010,04,02,14,26,984.38
2010,04,02,14,27,984.23
2010,04,02,14,28,984.24
2010,04,02,14,29,984.34
2010,04,02,14,30,984.36
2010,04,02,14,31,984.46
2010,04,02,14,32,984.41
2010,04,02,14,33,984.47
2010,04,02,14,34,984.41
2010,04,02,14,35,984.55
2010,04,02,14,36,984.45
2010,04,02,14,37,984.51
2010,04,02,14,38,984.50
2010,04,02,14,39,984.49
2010,04,02,14,40,984.33
2010,04,02,14,41,984.45
2010,04,02,14,42,984.41
2010,04,02,14,43,984.55
2010,04,02,14,44,984.62
2010,04,02,14,45,984.63
2010,04,02,14,46,984.52
2010,04,02,14,47,984.49
2010,04,02,14,48,984.60
2010,04,02,14,49,984.52
2010,04,02,14,50,984.49
2010,04,02,14,51,984.65
2010,04,02,14,52,984.69
2010,04,02,14,53,984.69
2010,04,02,14,54,984.69
2010,04,02,14,55,984.53
2010,04,02,14,56,984.60
2010,04,02,14,57,984.73
2010,04,02,14,58,984.70
2010,04,02,14,59,984.64
2010,04,02,15,00,984.68
2010,04,02,15,01,984.67
2010,04,02,15,02,984.66
2010,04,02,15,03,984.56
2010,04,02,15,04,984.55
2010,04,02,15,05,984.61
2010,04,02,15,06,984.68
2010,04,02,15,07,984.67
2010,04,02,15,08,984.72
2010,04,02,15,09,984.78
2010,04,02,15,10,984.80
2010,04,02,15,11,984.80
2010,04,02,15,12,984.85
2010,04,02,15,13,984.81
2010,04,02,15,14,984.77
2010,04,02,15,15,984.68
2010,04,02,15,16,984.72
2010,04,02,15,17,984.83
2010,04,02,15,18,984.76
2010,04,02,15,19,984.75
2010,04,02,15,20,984.74
2010,04,02,15,21,984.70
2010,04,02,15,22,984.69
2010,04,02,15,23,984.69
2010,04,02,15,24,984.61
2010,04,02,15,25,984.57
2010,04,02,15,26,984.58
2010,04,02,15,27,984.59
2010,04,02,15,28,984.59
2010,04,02,15,29,984.59
2010,04,02,15,30,984.72
2010,04,02,15,31,984.66
2010,04,02,15,32,984.65
2010,04,02,15,33,984.60
2010,04,02,15,34,984.57
2010,04,02,15,35,984.58
2010,04,02,15,36,984.57
2010,04,02,15,37,984.56
2010,04,02,15,38,984.43
2010,04,02,15,39,984.52
2010,04,02,15,40,984.50
2010,04,02,15,41,984.41
2010,04,02,15,42,984.47
2010,04,02,15,43,984.41
2010,04,02,15,44,984.37
2010,04,02,15,45,984.44
2010,04,02,15,46,984.43
2010,04,02,15,47,984.38
2010,04,02,15,48,984.41
2010,04,02,15,49,984.37
2010,04,02,15,50,984.33
2010,04,02,15,51,984.27
2010,04,02,15,52,984.36
2010,04,02,15,53,984.28
2010,04,02,15,54,984.23
2010,04,02,15,55,984.11
2010,04,02,15,56,984.22
2010,04,02,15,57,984.01
2010,04,02,15,58,983.97
2010,04,02,15,59,983.93
2010,04,02,16,00,983.97
2010,04,02,16,01,984.14
2010,04,02,16,02,984.00
2010,04,02,16,03,983.97
2010,04,02,16,04,984.01
2010,04,02,16,05,983.94
2010,04,02,16,06,983.89
2010,04,02,16,07,983.88
2010,04,02,16,08,983.96
2010,04,02,16,09,983.88
2010,04,02,16,10,983.91
2010,04,02,16,11,983.97
2010,04,02,16,12,983.93
2010,04,02,16,13,983.99
2010,04,02,16,14,983.94
2010,04,02,16,15,983.92
2010,04,02,16,16,983.92
2010,04,02,16,17,984.02
2010,04,02,16,18,983.92
2010,04,02,16,19,983.88
2010,04,02,16,20,983.99
2010,04,02,16,21,983.97
2010,04,02,16,22,984.05
2010,04,02,16,23,983.98
2010,04,02,16,24,983.87
2010,04,02,16,25,983.91
2010,04,02,16,26,983.87